Showing default

IRIDIUM 100, 42956

Orbit data source: Space-Track

IRIDIUM 100, 42956 is a payload satellite owned by Iridium (US) in LEO that was launched on Mon, 09 Oct 2017 UTC via an FALCON 9 launch vehicle from the Air Force Western Test Range (AFWTR). Payload-class satellites include a variety of spacecraft equipped with specific instruments for various scientific and technological missions. These include communications satellites like Starlink; space stations such as the ISS; scientific satellites like the Hubble; Earth observation satellites from companies like Planet Labs, Umbra, and HawkEye 360; GPS; miniature CubeSats for education and research; and military/defense satellites.

Loading next visibility...
Identifier
42956, 2017-061B
Orbit
LEO
Country
Flag of USUS
Related business
Manufacturer
OATK SSG Gilbert
Mission
Operational Commercial Communications
Bus & Motor
ELITEBUS, Unknown motor
Mass
860 kg wet, 700 kg dry
Launch date (UTC)
2017-10-09 (8 years ago)
Launch vehicle
FALCON 9
Launch site
Air Force Western Test Range (AFWTR)
Object type
Payload
Rocket body
Debris
Shape & HBR
Trap Box + 2 Pan, 4.7 m
Radar Cross Section
14.423 m², Large (>1 m²)

Expand to show TLE details & history
Last TLE update: 12 hours ago

TLE from 12 hours ago
0 IRIDIUM 100
1 42956U 17061B   25258.76517050  .00000044  00000-0  87928-5 0  9991
2 42956  86.3999 139.9324 0002258  87.4033 272.7421 14.34217818415447
Epoch: 2025-09-15T18:21Z
TLE epoch observation values (Epoch: 2025-09-15T18:21:50.731Z)
Latitude
-0.00003°
Longitude
-130.49411°
Altitude
780.641 km
Speed
7.464 km/s
True Right ascension
09h 19m 43s
True Declination
0° 00' 00"
Sunlit
Object was in daylight at epoch
Visualization orbit readout
Latitude
Unknown
Longitude
Unknown
Altitude
Unknown
Speed
Unknown
Apparent Right ascension
Unknown
Apparent Declination
Unknown
Sunlit
N/A
Visualization observer readout
Local Sidereal Time
23:10:38
Azimuth
Unknown
Elevation
Unknown
Doppler factor
Unknown
Orbital elements
Apogee altitude
776.246 km
Perigee altitude
773.016 km
Semi-major axis
7,152.768 km
Eccentricity
0.00023
Inclination
86.3999°
RAAN
139.9324°
Arg. of periapsis
87.4033°
True anomaly
272.71625°
Mean anomaly
272.7421°
Eccentric anomaly
272.72918°
Mean motion
3.58783 °/min
Orbital period
100.34 mins
BSTAR
0.0000087928
Loading maneuver chart data...
Computing Atmospheric mass density...
Loading historical data...
Loading historical data...
Loading historical data...
Loading historical data...
Loading historical data...
Loading historical data...
Loading historical data...

Documentation

Showing up to 5 results
|